Location: Newark
(42.7133°N, 87.7910°W)
Time: 20:48:05
(UTC+00:00)

Tiros 1 - Pass Details

Date: 21 September 2019
Orbit: 630 x 664 km, 48.4° (Epoch: 17 October)

Event Time Altitude Azimuth Distance (km) Brightness Sun altitude
Rises 19:24:27 0° 255° (WSW) 2,967 11.1 42.3°
Reaches altitude 10° 19:26:49 10° 258° (WSW) 2,052 10.4 42.0°
Maximum altitude 19:31:31 63° 340° (NNW) 723 7.8 41.5°
Drops below altitude 10° 19:36:10 10° 62° (ENE) 2,034 9.4 41.0°
Sets 19:38:31 0° 66° (ENE) 2,939 10.1 40.7°
